Flag for U.S.A. Weather past 2 weeks in Orange, California, U.S.A.

Now
70 °F

Clear.


Feels Like: 74 °F
Forecast: 65 / 88 °F
Wind: 3 mph from Southeast

Location: John Wayne Airport-Orange County Airport

Current Time: Jul 23, 2014 at 3:41:04 AM

Latest Report: Jul 23, 2014 at 2:53 AM


Visibility: 10 mi

Pressure: 29.98 "Hg

Humidity: 71%

Dew point: 60 °F

Location of OrangeLocation

Historic Weather in Orange — Graph

°F

Orange temperature yesterday

Maximum temperature yesterday: 83 °F (at 4:53 PM)
Minimum temperature yesterday: 68 °F (at 3:53 AM)
Average temperature yesterday: 73 °F

Past Weeks' High & Low Weather Summary

 TemperatureHumidityPressure
High83 °F (Jul 22, 4:53 PM)82% (Jul 12, 5:53 AM)30.06 "Hg (Jul 12, 5:53 AM)
Low68 °F (Jul 12, 4:53 AM)44% (Jul 22, 4:53 PM)29.85 "Hg (Jul 13, 5:53 PM)
Average73 °F66%29.97 "Hg
* Reported Jul 8 1:53 AM — Jul 23 1:53 AM, Orange, Weather by CustomWeather, © 2014

Note: Actual official high and low records may vary slightly from our data, if they occured in-between our weather recording intervals... More about our weather records

Advertising

Orange weather history for previous 24 hours

 ConditionsComfort  
Time TempWeatherWind HumidityBarometerVisibility
1:53 AM
Jul 23
70 °FClear.No wind73%29.99 "Hg10 mi
12:53 AM70 °FClear.No wind73%29.99 "Hg10 mi
10:53 PM
Jul 22
72 °FPassing clouds.6 mph64%30.00 "Hg10 mi
9:53 PM73 °FPassing clouds.6 mph69%30.01 "Hg9 mi
8:53 PM75 °FSunny.3 mph62%29.99 "Hg10 mi
7:53 PM77 °FSunny.8 mph52%29.98 "Hg10 mi
6:53 PM81 °FSunny.5 mph47%29.97 "Hg10 mi
5:53 PM81 °FSunny.8 mph49%29.98 "Hg10 mi
4:53 PM83 °FSunny.9 mph44%29.98 "Hg10 mi
9:53 AM77 °FPassing clouds.5 mph56%30.05 "Hg10 mi
8:53 AM74 °FPassing clouds.No wind64%30.05 "Hg10 mi
7:53 AM71 °FPassing clouds.No wind73%30.04 "Hg10 mi
6:53 AM69 °FPassing clouds.No wind79%30.02 "Hg10 mi
5:53 AM68 °FPassing clouds.No wind78%30.01 "Hg10 mi
4:53 AM68 °FClear.No wind82%30.02 "Hg10 mi
3:53 AM68 °FClear.No wind82%30.01 "Hg10 mi
Weather by CustomWeather, © 2014

See weather overviewHow to use our weather pages